Flag Weather past 2 weeks in Khartoum, Sudan

Now
73 °F

Clear.


Feels Like: 74 °F
Forecast: 65 / 88 °F
Wind: 7 mph from North

Location: Khartoum Airport

Current Time: Nov 27, 2014 at 9:27:31 PM

Latest Report: Nov 27, 2014 at 9:00 PM


Visibility: 10 mi

Pressure: 29.98 "Hg

Humidity: 14%

Dew point: 21 °F

Location of KhartoumLocation

Historic Weather in Khartoum — Graph

°F

Khartoum temperature yesterday

Maximum temperature yesterday: 81 °F (at 2:00 PM)
Minimum temperature yesterday: 61 °F (at 6:00 AM)
Average temperature yesterday: 70 °F

Past Weeks' High & Low Weather Summary

 TemperatureHumidityPressure
High97 °F (Nov 15, 3:00 PM)39% (Nov 25, 7:00 AM)30.07 "Hg (Nov 25, 7:00 AM)
Low61 °F (Nov 25, 7:00 AM)8% (Nov 22, 4:00 PM)29.74 "Hg (Nov 13, 3:00 PM)
Average82 °F21%29.91 "Hg
* Reported Nov 12 8:00 PM — Nov 27 8:30 PM, Khartoum, Weather by CustomWeather, © 2014

Note: Actual official high and low records may vary slightly from our data, if they occured in-between our weather recording intervals... More about our weather records

Advertising

Khartoum weather history for previous 24 hours

 ConditionsComfort  
Time TempWeatherWind HumidityBarometerVisibility
8:30 PM
Nov 27
N/AClear.6 mphN/A29.98 "Hg10 mi
8:00 PM75 °FClear.8 mph16%29.95 "Hg10 mi
7:30 PMN/AClear.8 mphN/A29.95 "Hg10 mi
7:00 PM81 °FClear.9 mph12%29.95 "Hg10 mi
6:30 PMN/AClear.9 mphN/A29.95 "Hg10 mi
6:00 PM84 °FSunny.13 mph11%29.92 "Hg10 mi
5:30 PMN/ASunny.13 mphN/A29.92 "Hg10 mi
5:00 PM86 °FSunny.13 mph9%29.92 "Hg10 mi
4:30 PMN/ASunny.14 mphN/A29.92 "Hg10 mi
4:00 PM86 °FSunny.10 mph9%29.92 "Hg10 mi
3:30 PMN/ASunny.10 mphN/A29.92 "Hg10 mi
3:00 PM86 °FSunny.12 mph13%29.95 "Hg10 mi
2:30 PMN/ASunny.9 mphN/A29.95 "Hg10 mi
2:00 PM84 °FSunny.15 mph11%29.95 "Hg10 mi
1:30 PMN/ASunny.7 mphN/A29.95 "Hg10 mi
1:00 PM82 °FSunny.7 mph14%29.98 "Hg10 mi
12:30 PMN/ASunny.16 mphN/A29.98 "Hg10 mi
12:00 PM79 °FSunny.14 mph15%30.01 "Hg10 mi
11:30 AMN/ASunny.12 mphN/A30.01 "Hg10 mi
11:00 AM75 °FSunny.13 mph16%30.04 "Hg10 mi
10:30 AMN/ASunny.15 mphN/A30.04 "Hg10 mi
10:00 AM72 °FSunny.16 mph22%30.04 "Hg10 mi
9:30 AMN/ASunny.16 mphN/A30.04 "Hg10 mi
9:00 AM66 °FSunny.13 mph24%30.04 "Hg10 mi
8:30 AMN/ASunny.7 mphN/A30.01 "Hg10 mi
8:00 AM63 °FSunny.10 mph27%30.01 "Hg10 mi
7:30 AMN/ASunny.8 mphN/A30.01 "Hg10 mi
7:00 AM61 °FSunny.8 mph34%30.01 "Hg10 mi
6:30 AMN/AClear.8 mphN/A29.98 "Hg10 mi
6:00 AM63 °FClear.8 mph27%29.95 "Hg10 mi
5:30 AMN/AClear.3 mphN/A29.95 "Hg10 mi
5:00 AM63 °FClear.5 mph27%29.95 "Hg10 mi
4:30 AMN/AClear.3 mphN/A29.95 "Hg10 mi
4:00 AM64 °FClear.6 mph30%29.95 "Hg10 mi
Weather by CustomWeather, © 2014

See weather overviewHow to use our weather pages